This demonstration page uses our WeatherBlox Daily Observations layout. Learn more.

Left ArrowRight Arrow

44.89941, -97.11507

Hourly Observations for August 3, 2016

Temp ( °F °C ) Dew Point ( °F °C ) Humidity (%) Winds ( mph kmh ) Pressure ( in mb ) Visibility ( mi km ) Precip ( " mm )
12:53 am 00:53 Clear 73 22.8 60 15.6 64 64 ESE 5 7 30.03 1017 10 16 0.00 0.00
1:53 am 01:53 Clear 72 22.2 59 15 64 64 SE 3 6 30.01 1016 10 16 0.00 0.00
2:53 am 02:53 Clear 71 21.7 60 15.6 68 68 SE 6 9 30.01 1016 10 16 0.00 0.00
3:53 am 03:53 Clear 70 21.1 61 16.1 73 73 ESE 3 6 30.00 1016 10 16 0.00 0.00
4:53 am 04:53 Clear 68 20 62 16.7 81 81 Calm 30.01 1016 10 16 0.00 0.00
5:53 am 05:53 Clear 70 21.1 65 18.3 84 84 ESE 6 9 29.98 1015 10 16 0.00 0.00
6:53 am 06:53 Partly Cloudy 70 21.1 68 20 93 93 SSE 7 11 29.96 1015 8 13 0.00 0.00
7:00 am 07:00 Mostly Cloudy with Mist and Fog 70 21.1 69 20.6 97 97 SSE 10 17 29.91 1013 2 3 0.00 0.00
7:03 am 07:03 Mostly Cloudy with Fog 70 21.1 69 20.6 97 97 SSE 10 17 29.91 1013 0 0 0.00 0.00
7:49 am 07:49 Cloudy with Mist and Fog 72 22 72 22 100 100 SSE 7 11 29.91 1013 1 2 0.00 0.00
7:50 am 07:50 Cloudy with Mist and Fog 72 22.2 71 21.7 97 97 SE 8 13 29.96 1015 1 2 0.00 0.00
7:53 am 07:53 Cloudy with Mist and Fog 72 22.2 71 21.7 97 97 SE 8 13 29.91 1013 2 3 0.00 0.00
8:03 am 08:03 Cloudy with Mist and Fog 72 22.2 71 21.7 97 97 SE 8 13 29.91 1013 3 5 0.00 0.00
8:53 am 08:53 Cloudy with Mist and Fog 73 22.8 71 21.7 94 94 SSE 10 17 29.97 1015 6 10 0.00 0.00
9:15 am 09:15 Partly Cloudy 74 23.3 71 21.7 91 91 SSE 8 13 29.91 1013 9 14 0.00 0.00
9:34 am 09:34 Mostly Cloudy 75 23.9 71 21.7 88 88 SSE 9 15 29.91 1013 10 16 0.00 0.00
9:41 am 09:41 Mostly Cloudy 75 23.9 71 21.7 88 88 SSE 7 11 29.91 1013 10 16 0.00 0.00
9:53 am 09:53 Partly Cloudy 75 23.9 71 21.7 88 88 SSE 8 13 29.97 1015 10 16 0.00 0.00
10:53 am 10:53 Sunny 77 25 71 21.7 82 82 SSE 13 20 29.95 1014 10 16 0.00 0.00
11:53 am 11:53 Sunny 83 28.3 72 22.2 70 70 SSE 13 20 29.94 1014 10 16 0.00 0.00
12:53 pm 12:53 Mostly Sunny 86 30 71 21.7 61 61 S 17 28 29.91 1013 10 16 0.00 0.00
1:53 pm 13:53 Mostly Sunny 87 30.6 70 21.1 57 57 S 22 35 29.89 1012 10 16 0.00 0.00
2:53 pm 14:53 Mostly Sunny 87 30.6 71 21.7 59 59 SSE 17 28 29.87 1012 10 16 0.00 0.00
3:53 pm 15:53 Mostly Cloudy 86 30 71 21.7 61 61 S 16 26 29.86 1011 10 16 0.00 0.00
4:53 pm 16:53 Partly Cloudy 86 30 71 21.7 61 61 S 21 33 29.84 1010 10 16 0.00 0.00
5:53 pm 17:53 Partly Cloudy 86 30 71 21.7 61 61 S 20 31 29.82 1010 10 16 0.00 0.00
6:53 pm 18:53 Partly Cloudy 86 30 72 22.2 63 63 S 21 33 29.80 1009 10 16 0.00 0.00
7:53 pm 19:53 Sunny 83 28.3 71 21.7 67 67 S 18 30 29.77 1008 10 16 0.00 0.00
8:53 pm 20:53 Clear 81 27.2 71 21.7 72 72 S 13 20 29.79 1009 10 16 0.00 0.00
9:53 pm 21:53 Clear 79 26.1 71 21.7 77 77 S 14 22 29.80 1009 10 16 0.00 0.00
10:53 pm 22:53 Clear 77 25 72 22.2 85 85 S 16 26 29.75 1008 10 16 0.00 0.00
11:53 pm 23:53 Clear 78 25.6 72 22.2 82 82 S 20 31 29.75 1007 10 16 0.00 0.00

Powered by AerisWeather